• Join FlightAware (Why Join?)
  • Login
  • US Flag 
02:47AM EDT


 

Airport Tracker/Info


-or-


 

Live Flight TrackerFlight Track Log ✈ N131GG ✈ 09-May-2013 ✈ KCRG - KPDK

Flight Track Log - Related Links

Times and Time Zones

All times are in EDT time to prevent confusion due to time zone crossing. See the N131GG flight status page for this flight to view local times or setup timezone preferences in your user account.

Time Position Orientation Groundspeed Altitude Reporting Facility
EDT Latitude Longitude Course Direction KTS MPH feet Rate Location/Type
08:58PM 30.3319 -81.5039 22° Northeast 151 174 1,200  Level Jacksonville Center
08:58PM 30.3592 -81.4914 22° Northeast 169 194 4,000 4,440 Climbing Jacksonville Center
08:59PM 30.4094 -81.5197 334° Northwest 208 239 8,400 4,200 Climbing Jacksonville Center
09:00PM 30.4389 -81.5386 331° Northwest 216 249 10,700 3,900 Climbing Jacksonville Center
09:01PM 30.4997 -81.5739 333° Northwest 235 270 14,600 3,540 Climbing Jacksonville Center
09:02PM 30.5650 -81.6117 334° Northwest 248 285 17,800 2,880 Climbing Jacksonville Center
09:03PM 30.6383 -81.6564 332° Northwest 267 307 20,400 2,400 Climbing Jacksonville Center
09:04PM 30.7244 -81.7083 333° Northwest 309 356 22,700 2,460 Climbing Jacksonville Center
09:05PM 30.8128 -81.7606 333° Northwest 339 390 25,400 2,100 Climbing Jacksonville Center
09:06PM 30.9072 -81.8200 332° Northwest 364 419 27,000 900 Climbing Jacksonville Center
09:07PM 31.0078 -81.8794 333° Northwest 383 441 27,300 1,680 Climbing Jacksonville Center
09:08PM 31.1044 -81.9367 333° Northwest 389 448 30,400 1,800 Climbing Jacksonville Center
09:09PM 31.2031 -81.9964 333° Northwest 389 448 31,000 300 Climbing Jacksonville Center
09:10PM 31.3014 -82.0561 333° Northwest 394 453 31,000  Level Jacksonville Center
09:11PM 31.3978 -82.1161 332° Northwest 387 445 31,000  Level Jacksonville Center
09:12PM 31.4922 -82.1786 331° Northwest 380 437 31,000  Level Jacksonville Center
09:13PM 31.5886 -82.2317 335° Northwest 379 436 31,000  Level Jacksonville Center
09:14PM 31.6786 -82.2872 332° Northwest 373 429 31,000  Level Jacksonville Center
09:16PM 31.8692 -82.4003 333° Northwest 379 436 31,000  Level Atlanta Center
09:17PM 31.9619 -82.4575 332° Northwest 368 423 31,000  Level Atlanta Center
09:18PM 32.0544 -82.5147 332° Northwest 368 423 31,000  Level Atlanta Center
09:19PM 32.1450 -82.5719 332° Northwest 373 429 31,000  Level Atlanta Center
09:20PM 32.2333 -82.6344 329° Northwest 373 429 31,000  Level Atlanta Center
09:21PM 32.3175 -82.7092 323° Northwest 373 429 31,000  Level Atlanta Center
09:22PM 32.3997 -82.7817 323° Northwest 373 429 31,000  Level Atlanta Center
09:23PM 32.4819 -82.8569 322° Northwest 373 429 31,000  Level Atlanta Center
09:24PM 32.5619 -82.9297 323° Northwest 373 429 31,000  Level Atlanta Center
09:25PM 32.6503 -83.0053 324° Northwest 386 444 31,000  Level Atlanta Center
09:26PM 32.7428 -83.0856 324° Northwest 386 444 31,000 -120 Level Atlanta Center
09:27PM 32.8142 -83.1539 321° Northwest 380 437 30,800 -1,320 Descending Atlanta Center
09:28PM 32.8961 -83.2275 323° Northwest 374 430 28,400 -3,000 Descending Atlanta Center
09:29PM 32.9925 -83.3083 325° Northwest 386 444 24,900 -3,120 Descending Atlanta Center
09:30PM 33.0681 -83.3769 323° Northwest 386 444 22,200 -2,940 Descending Atlanta Center
09:31PM 33.1564 -83.4606 322° Northwest 381 438 19,100 -3,120 Descending Atlanta Center
09:32PM 33.2381 -83.5297 325° Northwest 370 426 16,000 -3,000 Descending Atlanta Center
09:33PM 33.3072 -83.5914 323° Northwest 334 384 13,100 -2,460 Descending Atlanta Center
09:34PM 33.3700 -83.6483 323° Northwest 305 351 11,100 -1,200 Descending Atlanta Center
09:35PM 33.4347 -83.6928 330° Northwest 275 316 10,700 -720 Descending Atlanta Center
09:36PM 33.5036 -83.7225 340° North 262 302 9,700 -1,260 Descending Atlanta Center
09:37PM 33.5706 -83.7497 341° North 252 290 8,200 -1,560 Descending Atlanta Center
09:38PM 33.6333 -83.7819 337° Northwest 245 282 6,600 -1,140 Descending Atlanta Center
09:39PM 33.6939 -83.8067 341° North 238 274 6,000 -360 Descending Atlanta Center
09:40PM 33.7522 -83.8339 339° North 227 261 5,900 -540 Descending Atlanta Center
09:41PM 33.7983 -83.8889 315° West 227 261 5,000 -900 Descending Atlanta Center
09:42PM 33.8400 -83.9389 315° West 227 261 4,100 -480 Descending Atlanta Center
09:43PM 33.8833 -84.0000 311° West 220 253 4,100 -540 Level Atlanta TRACON
09:44PM 33.9000 -84.0667 287° West 224 258 3,100 -540 Descending Atlanta TRACON
09:45PM 33.9167 -84.1333 287° West 198 228 3,100 -60 Level Atlanta TRACON
09:46PM 33.9333 -84.1833 292° West 141 162 3,000 -420 Descending Atlanta TRACON
09:47PM 33.9333 -84.2333 270° West 124 143 2,300 -540 Descending Atlanta TRACON
09:48PM 33.9167 -84.2667 239° Southwest 128 147 2,000 -360 Descending Atlanta TRACON
09:50PM 33.8667 -84.3000 220° Southwest  Level FlightAware Approximate
09:57PM 33.8756 -84.3020 220° Southwest  Level Estimated
09:58PM 33.8756 -84.3020 220° Southwest  Level Estimated